{"data":{"norad_id":59566,"epoch":"2026-09-21T12:16:23.586240Z","epoch_age_seconds":80863,"freshness":"FRESH","line1":"1 59566U 24076C   26264.51138410 -.00000021  00000+0  87623-5 0  9997","line2":"2 59566  43.0023 342.8808 0002358 285.0745  74.9846 15.27570814136454","mean_motion":15.27570814,"eccentricity":0.0002358,"inclination_deg":43.0023,"raan_deg":342.8808,"arg_perigee_deg":285.0745,"mean_anomaly_deg":74.9846,"bstar":8.7623e-6,"rev_number":13645,"period_min":94.267315583839,"perigee_km":481.4587281987,"apogee_km":484.69447653358,"semimajor_km":6861.2136023661,"source":"CELESTRAK","updated_at":"2026-09-22T09:00:49.000381Z"}}